Location: Gönnheim
(49.4488°N, 8.2383°E)
Time: 21:30:51
(UTC+00:00)

USA 234 - Pass Details

Date: 19 May 2025
Orbit: 1097 x 1111 km, 123.0° (Epoch: 13 June)

Event Time Altitude Azimuth Distance (km) Brightness Sun altitude
Rises 20:47:44 0° 56° (NE) 3,925 6.1 -12.5°
Reaches altitude 10° 20:50:13 10° 57° (ENE) 2,967 5.5 -12.7°
Maximum altitude 20:56:48 80° 145° (SE) 1,127 3.2 -13.3°
Drops below altitude 10° 21:03:22 10° 233° (SW) 2,966 5.5 -13.9°
Sets 21:05:51 0° 234° (SW) 3,923 6.1 -14.2°
